<?xml version="1.0" encoding="UTF-8" standalone="no" ?>
<gpx xmlns="http://www.topografix.com/GPX/1/1" xmlns:xsi="http://www.w3.org/2001/XMLSchema-instance" xsi:schemaLocation="http://www.topografix.com/GPX/1/1 http://www.topografix.com/GPX/1/1/gpx.xsd" version="1.1" creator="VisuGPX - https://www.visugpx.com">
  <metadata>
    <name>Cologne</name>
    <desc><![CDATA[Randonnée assez facile, un peu longue (16 km soit 3heures et demi environ en marchant tranquillement), le long de chemins ombragés et longeant des champs.
]]></desc>
  </metadata>
  <trk>
    <name><![CDATA[Cologne_1]]></name>
    <trkseg>
      <trkpt lat="43.72195" lon="0.9778">
        <ele>203</ele>
        <time>2016-10-22T06:16:36Z</time>
      </trkpt>
      <trkpt lat="43.72136" lon="0.97689">
        <ele>203</ele>
        <time>2016-10-22T06:16:36Z</time>
      </trkpt>
      <trkpt lat="43.72055" lon="0.97631">
        <ele>196</ele>
        <time>2016-10-22T06:16:36Z</time>
      </trkpt>
      <trkpt lat="43.71965" lon="0.9758">
        <ele>192</ele>
        <time>2016-10-22T06:16:36Z</time>
      </trkpt>
      <trkpt lat="43.71873" lon="0.97536">
        <ele>193</ele>
        <time>2016-10-22T06:16:36Z</time>
      </trkpt>
      <trkpt lat="43.71785" lon="0.97517">
        <ele>190</ele>
        <time>2016-10-22T06:16:36Z</time>
      </trkpt>
      <trkpt lat="43.71697" lon="0.97489">
        <ele>181</ele>
        <time>2016-10-22T06:16:36Z</time>
      </trkpt>
      <trkpt lat="43.71606" lon="0.9745">
        <ele>172</ele>
        <time>2016-10-22T06:16:36Z</time>
      </trkpt>
      <trkpt lat="43.71581" lon="0.97328">
        <ele>167</ele>
        <time>2016-10-22T06:16:36Z</time>
      </trkpt>
      <trkpt lat="43.71544" lon="0.97237">
        <ele>169</ele>
        <time>2016-10-22T06:16:36Z</time>
      </trkpt>
      <trkpt lat="43.7146" lon="0.97196">
        <ele>171</ele>
        <time>2016-10-22T06:16:36Z</time>
      </trkpt>
      <trkpt lat="43.71373" lon="0.97163">
        <ele>175</ele>
        <time>2016-10-22T06:16:36Z</time>
      </trkpt>
      <trkpt lat="43.71286" lon="0.9712">
        <ele>182</ele>
        <time>2016-10-22T06:16:36Z</time>
      </trkpt>
      <trkpt lat="43.712" lon="0.9708">
        <ele>187</ele>
        <time>2016-10-22T06:16:36Z</time>
      </trkpt>
      <trkpt lat="43.71118" lon="0.97031">
        <ele>183</ele>
        <time>2016-10-22T06:16:36Z</time>
      </trkpt>
      <trkpt lat="43.71036" lon="0.96978">
        <ele>173</ele>
        <time>2016-10-22T06:16:36Z</time>
      </trkpt>
      <trkpt lat="43.70995" lon="0.96932">
        <ele>166</ele>
        <time>2016-10-22T06:16:36Z</time>
      </trkpt>
      <trkpt lat="43.70912" lon="0.96905">
        <ele>152</ele>
        <time>2016-10-22T06:16:36Z</time>
      </trkpt>
      <trkpt lat="43.70828" lon="0.96866">
        <ele>144</ele>
        <time>2016-10-22T06:16:36Z</time>
      </trkpt>
      <trkpt lat="43.70756" lon="0.9678">
        <ele>144</ele>
        <time>2016-10-22T06:16:36Z</time>
      </trkpt>
      <trkpt lat="43.70681" lon="0.96707">
        <ele>147</ele>
        <time>2016-10-22T06:16:36Z</time>
      </trkpt>
      <trkpt lat="43.706" lon="0.96661">
        <ele>156</ele>
        <time>2016-10-22T06:16:36Z</time>
      </trkpt>
      <trkpt lat="43.7057" lon="0.96664">
        <ele>160</ele>
        <time>2016-10-22T06:16:36Z</time>
      </trkpt>
      <trkpt lat="43.70491" lon="0.96616">
        <ele>167</ele>
        <time>2016-10-22T06:16:36Z</time>
      </trkpt>
      <trkpt lat="43.70407" lon="0.96577">
        <ele>170</ele>
        <time>2016-10-22T06:16:36Z</time>
      </trkpt>
      <trkpt lat="43.70332" lon="0.96519">
        <ele>169</ele>
        <time>2016-10-22T06:16:36Z</time>
      </trkpt>
      <trkpt lat="43.70273" lon="0.96424">
        <ele>171</ele>
        <time>2016-10-22T06:16:36Z</time>
      </trkpt>
      <trkpt lat="43.70236" lon="0.96338">
        <ele>172</ele>
        <time>2016-10-22T06:16:36Z</time>
      </trkpt>
      <trkpt lat="43.70211" lon="0.96214">
        <ele>176</ele>
        <time>2016-10-22T06:16:36Z</time>
      </trkpt>
      <trkpt lat="43.70178" lon="0.96104">
        <ele>176</ele>
        <time>2016-10-22T06:16:36Z</time>
      </trkpt>
      <trkpt lat="43.70124" lon="0.95997">
        <ele>178</ele>
        <time>2016-10-22T06:16:36Z</time>
      </trkpt>
      <trkpt lat="43.70053" lon="0.95914">
        <ele>185</ele>
        <time>2016-10-22T06:16:36Z</time>
      </trkpt>
      <trkpt lat="43.70011" lon="0.95844">
        <ele>187</ele>
        <time>2016-10-22T06:16:36Z</time>
      </trkpt>
      <trkpt lat="43.69969" lon="0.9573">
        <ele>191</ele>
        <time>2016-10-22T06:16:36Z</time>
      </trkpt>
      <trkpt lat="43.699" lon="0.9566">
        <ele>196</ele>
        <time>2016-10-22T06:16:36Z</time>
      </trkpt>
      <trkpt lat="43.6982" lon="0.9567">
        <ele>197</ele>
        <time>2016-10-22T06:16:36Z</time>
      </trkpt>
      <trkpt lat="43.69823" lon="0.95799">
        <ele>193</ele>
        <time>2016-10-22T06:16:36Z</time>
      </trkpt>
      <trkpt lat="43.69838" lon="0.95926">
        <ele>190</ele>
        <time>2016-10-22T06:16:36Z</time>
      </trkpt>
      <trkpt lat="43.69854" lon="0.96049">
        <ele>187</ele>
        <time>2016-10-22T06:16:36Z</time>
      </trkpt>
      <trkpt lat="43.69887" lon="0.96171">
        <ele>184</ele>
        <time>2016-10-22T06:16:36Z</time>
      </trkpt>
      <trkpt lat="43.69899" lon="0.96301">
        <ele>182</ele>
        <time>2016-10-22T06:16:36Z</time>
      </trkpt>
      <trkpt lat="43.69846" lon="0.96413">
        <ele>178</ele>
        <time>2016-10-22T06:16:36Z</time>
      </trkpt>
      <trkpt lat="43.69809" lon="0.96537">
        <ele>173</ele>
        <time>2016-10-22T06:16:36Z</time>
      </trkpt>
      <trkpt lat="43.69789" lon="0.9666">
        <ele>169</ele>
        <time>2016-10-22T06:16:36Z</time>
      </trkpt>
      <trkpt lat="43.69792" lon="0.96779">
        <ele>163</ele>
        <time>2016-10-22T06:16:36Z</time>
      </trkpt>
      <trkpt lat="43.69745" lon="0.96886">
        <ele>154</ele>
        <time>2016-10-22T06:16:36Z</time>
      </trkpt>
      <trkpt lat="43.69708" lon="0.96993">
        <ele>153</ele>
        <time>2016-10-22T06:16:36Z</time>
      </trkpt>
      <trkpt lat="43.69718" lon="0.97111">
        <ele>162</ele>
        <time>2016-10-22T06:16:36Z</time>
      </trkpt>
      <trkpt lat="43.69688" lon="0.97213">
        <ele>163</ele>
        <time>2016-10-22T06:16:36Z</time>
      </trkpt>
      <trkpt lat="43.69611" lon="0.97276">
        <ele>167</ele>
        <time>2016-10-22T06:16:36Z</time>
      </trkpt>
      <trkpt lat="43.69527" lon="0.97283">
        <ele>169</ele>
        <time>2016-10-22T06:16:36Z</time>
      </trkpt>
      <trkpt lat="43.69449" lon="0.97349">
        <ele>171</ele>
        <time>2016-10-22T06:16:36Z</time>
      </trkpt>
      <trkpt lat="43.69381" lon="0.97424">
        <ele>171</ele>
        <time>2016-10-22T06:16:36Z</time>
      </trkpt>
      <trkpt lat="43.69295" lon="0.97459">
        <ele>171</ele>
        <time>2016-10-22T06:16:36Z</time>
      </trkpt>
      <trkpt lat="43.69218" lon="0.97523">
        <ele>175</ele>
        <time>2016-10-22T06:16:36Z</time>
      </trkpt>
      <trkpt lat="43.69154" lon="0.9762">
        <ele>177</ele>
        <time>2016-10-22T06:16:36Z</time>
      </trkpt>
      <trkpt lat="43.69094" lon="0.97713">
        <ele>177</ele>
        <time>2016-10-22T06:16:36Z</time>
      </trkpt>
      <trkpt lat="43.69033" lon="0.97809">
        <ele>179</ele>
        <time>2016-10-22T06:16:36Z</time>
      </trkpt>
      <trkpt lat="43.69003" lon="0.97848">
        <ele>178</ele>
        <time>2016-10-22T06:16:36Z</time>
      </trkpt>
      <trkpt lat="43.68956" lon="0.97956">
        <ele>173</ele>
        <time>2016-10-22T06:16:36Z</time>
      </trkpt>
      <trkpt lat="43.6889" lon="0.98046">
        <ele>173</ele>
        <time>2016-10-22T06:16:36Z</time>
      </trkpt>
      <trkpt lat="43.68825" lon="0.98121">
        <ele>173</ele>
        <time>2016-10-22T06:16:36Z</time>
      </trkpt>
      <trkpt lat="43.68775" lon="0.9822">
        <ele>177</ele>
        <time>2016-10-22T06:16:36Z</time>
      </trkpt>
      <trkpt lat="43.68728" lon="0.98321">
        <ele>181</ele>
        <time>2016-10-22T06:16:36Z</time>
      </trkpt>
      <trkpt lat="43.68679" lon="0.98424">
        <ele>185</ele>
        <time>2016-10-22T06:16:36Z</time>
      </trkpt>
      <trkpt lat="43.68632" lon="0.98532">
        <ele>188</ele>
        <time>2016-10-22T06:16:36Z</time>
      </trkpt>
      <trkpt lat="43.68589" lon="0.98641">
        <ele>191</ele>
        <time>2016-10-22T06:16:36Z</time>
      </trkpt>
      <trkpt lat="43.68542" lon="0.98746">
        <ele>193</ele>
        <time>2016-10-22T06:16:36Z</time>
      </trkpt>
      <trkpt lat="43.68497" lon="0.98853">
        <ele>196</ele>
        <time>2016-10-22T06:16:36Z</time>
      </trkpt>
      <trkpt lat="43.6845" lon="0.98958">
        <ele>197</ele>
        <time>2016-10-22T06:16:36Z</time>
      </trkpt>
      <trkpt lat="43.68405" lon="0.99064">
        <ele>200</ele>
        <time>2016-10-22T06:16:36Z</time>
      </trkpt>
      <trkpt lat="43.68356" lon="0.99166">
        <ele>204</ele>
        <time>2016-10-22T06:16:36Z</time>
      </trkpt>
      <trkpt lat="43.683" lon="0.99267">
        <ele>206</ele>
        <time>2016-10-22T06:16:36Z</time>
      </trkpt>
      <trkpt lat="43.68246" lon="0.99368">
        <ele>206</ele>
        <time>2016-10-22T06:16:36Z</time>
      </trkpt>
      <trkpt lat="43.68191" lon="0.99462">
        <ele>206</ele>
        <time>2016-10-22T06:16:36Z</time>
      </trkpt>
      <trkpt lat="43.68106" lon="0.99503">
        <ele>206</ele>
        <time>2016-10-22T06:16:36Z</time>
      </trkpt>
      <trkpt lat="43.68029" lon="0.99563">
        <ele>204</ele>
        <time>2016-10-22T06:16:36Z</time>
      </trkpt>
      <trkpt lat="43.68036" lon="0.99547">
        <ele>204</ele>
        <time>2016-10-22T06:16:36Z</time>
      </trkpt>
      <trkpt lat="43.68114" lon="0.99496">
        <ele>206</ele>
        <time>2016-10-22T06:16:36Z</time>
      </trkpt>
      <trkpt lat="43.68194" lon="0.99448">
        <ele>206</ele>
        <time>2016-10-22T06:16:36Z</time>
      </trkpt>
      <trkpt lat="43.6825" lon="0.9936">
        <ele>206</ele>
        <time>2016-10-22T06:16:36Z</time>
      </trkpt>
      <trkpt lat="43.68315" lon="0.99431">
        <ele>203</ele>
        <time>2016-10-22T06:16:36Z</time>
      </trkpt>
      <trkpt lat="43.68346" lon="0.99461">
        <ele>197</ele>
        <time>2016-10-22T06:16:36Z</time>
      </trkpt>
      <trkpt lat="43.68333" lon="0.99372">
        <ele>206</ele>
        <time>2016-10-22T06:16:36Z</time>
      </trkpt>
      <trkpt lat="43.68385" lon="0.99276">
        <ele>202</ele>
        <time>2016-10-22T06:16:36Z</time>
      </trkpt>
      <trkpt lat="43.68451" lon="0.99332">
        <ele>195</ele>
        <time>2016-10-22T06:16:36Z</time>
      </trkpt>
      <trkpt lat="43.68533" lon="0.99375">
        <ele>188</ele>
        <time>2016-10-22T06:16:36Z</time>
      </trkpt>
      <trkpt lat="43.68619" lon="0.99404">
        <ele>182</ele>
        <time>2016-10-22T06:16:36Z</time>
      </trkpt>
      <trkpt lat="43.68705" lon="0.99449">
        <ele>176</ele>
        <time>2016-10-22T06:16:36Z</time>
      </trkpt>
      <trkpt lat="43.68791" lon="0.99487">
        <ele>171</ele>
        <time>2016-10-22T06:16:36Z</time>
      </trkpt>
      <trkpt lat="43.6888" lon="0.99523">
        <ele>165</ele>
        <time>2016-10-22T06:16:36Z</time>
      </trkpt>
      <trkpt lat="43.68971" lon="0.99535">
        <ele>161</ele>
        <time>2016-10-22T06:16:36Z</time>
      </trkpt>
      <trkpt lat="43.69057" lon="0.99535">
        <ele>157</ele>
        <time>2016-10-22T06:16:36Z</time>
      </trkpt>
      <trkpt lat="43.69144" lon="0.99553">
        <ele>157</ele>
        <time>2016-10-22T06:16:36Z</time>
      </trkpt>
      <trkpt lat="43.69228" lon="0.99588">
        <ele>165</ele>
        <time>2016-10-22T06:16:36Z</time>
      </trkpt>
      <trkpt lat="43.69312" lon="0.99632">
        <ele>178</ele>
        <time>2016-10-22T06:16:36Z</time>
      </trkpt>
      <trkpt lat="43.69373" lon="0.99691">
        <ele>186</ele>
        <time>2016-10-22T06:16:36Z</time>
      </trkpt>
      <trkpt lat="43.6932" lon="0.99724">
        <ele>182</ele>
        <time>2016-10-22T06:16:36Z</time>
      </trkpt>
      <trkpt lat="43.69244" lon="0.99783">
        <ele>178</ele>
        <time>2016-10-22T06:16:36Z</time>
      </trkpt>
      <trkpt lat="43.69165" lon="0.9982">
        <ele>170</ele>
        <time>2016-10-22T06:16:36Z</time>
      </trkpt>
      <trkpt lat="43.69183" lon="0.99889">
        <ele>172</ele>
        <time>2016-10-22T06:16:36Z</time>
      </trkpt>
      <trkpt lat="43.69243" lon="0.9996">
        <ele>170</ele>
        <time>2016-10-22T06:16:36Z</time>
      </trkpt>
      <trkpt lat="43.69303" lon="1.00034">
        <ele>173</ele>
        <time>2016-10-22T06:16:36Z</time>
      </trkpt>
      <trkpt lat="43.69457" lon="1.00381">
        <ele>174</ele>
        <time>2016-10-22T06:16:36Z</time>
      </trkpt>
      <trkpt lat="43.69508" lon="1.00476">
        <ele>177</ele>
        <time>2016-10-22T06:16:36Z</time>
      </trkpt>
      <trkpt lat="43.69582" lon="1.00521">
        <ele>173</ele>
        <time>2016-10-22T06:16:36Z</time>
      </trkpt>
      <trkpt lat="43.69643" lon="1.00614">
        <ele>170</ele>
        <time>2016-10-22T06:16:36Z</time>
      </trkpt>
      <trkpt lat="43.69706" lon="1.00618">
        <ele>173</ele>
        <time>2016-10-22T06:16:36Z</time>
      </trkpt>
      <trkpt lat="43.69788" lon="1.00572">
        <ele>180</ele>
        <time>2016-10-22T06:16:36Z</time>
      </trkpt>
      <trkpt lat="43.69855" lon="1.00481">
        <ele>187</ele>
        <time>2016-10-22T06:16:36Z</time>
      </trkpt>
      <trkpt lat="43.69883" lon="1.00368">
        <ele>188</ele>
        <time>2016-10-22T06:16:36Z</time>
      </trkpt>
      <trkpt lat="43.69911" lon="1.00251">
        <ele>193</ele>
        <time>2016-10-22T06:16:36Z</time>
      </trkpt>
      <trkpt lat="43.69919" lon="1.00126">
        <ele>198</ele>
        <time>2016-10-22T06:16:36Z</time>
      </trkpt>
      <trkpt lat="43.69908" lon="1.0001">
        <ele>203</ele>
        <time>2016-10-22T06:16:36Z</time>
      </trkpt>
      <trkpt lat="43.69944" lon="0.99901">
        <ele>205</ele>
        <time>2016-10-22T06:16:36Z</time>
      </trkpt>
      <trkpt lat="43.7001" lon="0.99953">
        <ele>198</ele>
        <time>2016-10-22T06:16:36Z</time>
      </trkpt>
      <trkpt lat="43.70077" lon="1.00027">
        <ele>192</ele>
        <time>2016-10-22T06:16:36Z</time>
      </trkpt>
      <trkpt lat="43.70134" lon="0.99965">
        <ele>193</ele>
        <time>2016-10-22T06:16:36Z</time>
      </trkpt>
      <trkpt lat="43.70182" lon="0.99874">
        <ele>197</ele>
        <time>2016-10-22T06:16:36Z</time>
      </trkpt>
      <trkpt lat="43.70264" lon="0.99907">
        <ele>205</ele>
        <time>2016-10-22T06:16:36Z</time>
      </trkpt>
      <trkpt lat="43.70347" lon="0.9992">
        <ele>209</ele>
        <time>2016-10-22T06:16:36Z</time>
      </trkpt>
      <trkpt lat="43.70428" lon="0.99924">
        <ele>212</ele>
        <time>2016-10-22T06:16:36Z</time>
      </trkpt>
      <trkpt lat="43.70432" lon="0.99795">
        <ele>212</ele>
        <time>2016-10-22T06:16:36Z</time>
      </trkpt>
      <trkpt lat="43.70417" lon="0.99673">
        <ele>213</ele>
        <time>2016-10-22T06:16:36Z</time>
      </trkpt>
      <trkpt lat="43.70347" lon="0.99601">
        <ele>213</ele>
        <time>2016-10-22T06:16:36Z</time>
      </trkpt>
      <trkpt lat="43.70317" lon="0.99564">
        <ele>210</ele>
        <time>2016-10-22T06:16:36Z</time>
      </trkpt>
      <trkpt lat="43.70426" lon="0.99672">
        <ele>213</ele>
        <time>2016-10-22T06:16:36Z</time>
      </trkpt>
      <trkpt lat="43.70511" lon="0.99707">
        <ele>206</ele>
        <time>2016-10-22T06:16:36Z</time>
      </trkpt>
      <trkpt lat="43.70602" lon="0.99737">
        <ele>200</ele>
        <time>2016-10-22T06:16:36Z</time>
      </trkpt>
      <trkpt lat="43.70692" lon="0.99775">
        <ele>196</ele>
        <time>2016-10-22T06:16:36Z</time>
      </trkpt>
      <trkpt lat="43.70783" lon="0.99811">
        <ele>195</ele>
        <time>2016-10-22T06:16:36Z</time>
      </trkpt>
      <trkpt lat="43.70871" lon="0.99828">
        <ele>199</ele>
        <time>2016-10-22T06:16:36Z</time>
      </trkpt>
      <trkpt lat="43.70957" lon="0.99833">
        <ele>205</ele>
        <time>2016-10-22T06:16:36Z</time>
      </trkpt>
      <trkpt lat="43.71046" lon="0.99826">
        <ele>208</ele>
        <time>2016-10-22T06:16:36Z</time>
      </trkpt>
      <trkpt lat="43.71132" lon="0.99837">
        <ele>203</ele>
        <time>2016-10-22T06:16:36Z</time>
      </trkpt>
      <trkpt lat="43.71214" lon="0.99876">
        <ele>197</ele>
        <time>2016-10-22T06:16:36Z</time>
      </trkpt>
      <trkpt lat="43.71292" lon="0.99928">
        <ele>192</ele>
        <time>2016-10-22T06:16:36Z</time>
      </trkpt>
      <trkpt lat="43.71366" lon="0.9995">
        <ele>187</ele>
        <time>2016-10-22T06:16:36Z</time>
      </trkpt>
      <trkpt lat="43.7145" lon="0.99931">
        <ele>183</ele>
        <time>2016-10-22T06:16:36Z</time>
      </trkpt>
      <trkpt lat="43.71524" lon="0.99892">
        <ele>182</ele>
        <time>2016-10-22T06:16:36Z</time>
      </trkpt>
      <trkpt lat="43.71564" lon="0.99784">
        <ele>180</ele>
        <time>2016-10-22T06:16:36Z</time>
      </trkpt>
      <trkpt lat="43.71586" lon="0.99657">
        <ele>179</ele>
        <time>2016-10-22T06:16:36Z</time>
      </trkpt>
      <trkpt lat="43.71621" lon="0.99536">
        <ele>177</ele>
        <time>2016-10-22T06:16:36Z</time>
      </trkpt>
      <trkpt lat="43.71673" lon="0.99434">
        <ele>175</ele>
        <time>2016-10-22T06:16:36Z</time>
      </trkpt>
      <trkpt lat="43.7173" lon="0.99342">
        <ele>173</ele>
        <time>2016-10-22T06:16:36Z</time>
      </trkpt>
      <trkpt lat="43.71798" lon="0.9926">
        <ele>172</ele>
        <time>2016-10-22T06:16:36Z</time>
      </trkpt>
      <trkpt lat="43.71863" lon="0.99171">
        <ele>169</ele>
        <time>2016-10-22T06:16:36Z</time>
      </trkpt>
      <trkpt lat="43.71915" lon="0.99078">
        <ele>169</ele>
        <time>2016-10-22T06:16:36Z</time>
      </trkpt>
      <trkpt lat="43.7197" lon="0.98989">
        <ele>173</ele>
        <time>2016-10-22T06:16:36Z</time>
      </trkpt>
      <trkpt lat="43.72028" lon="0.98885">
        <ele>183</ele>
        <time>2016-10-22T06:16:36Z</time>
      </trkpt>
      <trkpt lat="43.72054" lon="0.98769">
        <ele>189</ele>
        <time>2016-10-22T06:16:36Z</time>
      </trkpt>
      <trkpt lat="43.72085" lon="0.98657">
        <ele>197</ele>
        <time>2016-10-22T06:16:36Z</time>
      </trkpt>
      <trkpt lat="43.72115" lon="0.98545">
        <ele>198</ele>
        <time>2016-10-22T06:16:36Z</time>
      </trkpt>
      <trkpt lat="43.72141" lon="0.98425">
        <ele>200</ele>
        <time>2016-10-22T06:16:36Z</time>
      </trkpt>
      <trkpt lat="43.72166" lon="0.98307">
        <ele>203</ele>
        <time>2016-10-22T06:16:36Z</time>
      </trkpt>
      <trkpt lat="43.722" lon="0.98194">
        <ele>201</ele>
        <time>2016-10-22T06:16:36Z</time>
      </trkpt>
      <trkpt lat="43.72247" lon="0.98095">
        <ele>200</ele>
        <time>2016-10-22T06:16:36Z</time>
      </trkpt>
      <trkpt lat="43.72312" lon="0.98056">
        <ele>199</ele>
        <time>2016-10-22T06:16:36Z</time>
      </trkpt>
      <trkpt lat="43.72348" lon="0.97948">
        <ele>195</ele>
        <time>2016-10-22T06:16:36Z</time>
      </trkpt>
      <trkpt lat="43.72298" lon="0.97879">
        <ele>196</ele>
        <time>2016-10-22T06:16:36Z</time>
      </trkpt>
      <trkpt lat="43.72224" lon="0.97826">
        <ele>202</ele>
        <time>2016-10-22T06:16:36Z</time>
      </trkpt>
      <trkpt lat="43.72205" lon="0.97752">
        <ele>203</ele>
        <time>2016-10-22T06:16:36Z</time>
      </trkpt>
      <trkpt lat="43.72206" lon="0.9775">
        <ele>203</ele>
        <time>2016-10-22T06:16:36Z</time>
      </trkpt>
      <trkpt lat="43.72207" lon="0.97748">
        <ele>204</ele>
        <time>2016-10-22T06:16:36Z</time>
      </trkpt>
      <trkpt lat="43.72207" lon="0.97746">
        <ele>204</ele>
        <time>2016-10-22T06:16:36Z</time>
      </trkpt>
      <trkpt lat="43.72207" lon="0.97744">
        <ele>204</ele>
        <time>2016-10-22T06:16:36Z</time>
      </trkpt>
      <trkpt lat="43.72206" lon="0.97742">
        <ele>204</ele>
        <time>2016-10-22T06:16:36Z</time>
      </trkpt>
      <trkpt lat="43.72205" lon="0.9774">
        <ele>204</ele>
        <time>2016-10-22T06:16:36Z</time>
      </trkpt>
      <trkpt lat="43.72204" lon="0.97738">
        <ele>204</ele>
        <time>2016-10-22T06:16:36Z</time>
      </trkpt>
      <trkpt lat="43.72202" lon="0.97736">
        <ele>204</ele>
        <time>2016-10-22T06:16:36Z</time>
      </trkpt>
      <trkpt lat="43.72201" lon="0.97734">
        <ele>204</ele>
        <time>2016-10-22T06:16:36Z</time>
      </trkpt>
      <trkpt lat="43.72201" lon="0.97732">
        <ele>204</ele>
        <time>2016-10-22T06:16:36Z</time>
      </trkpt>
      <trkpt lat="43.72201" lon="0.9773">
        <ele>204</ele>
        <time>2016-10-22T06:16:36Z</time>
      </trkpt>
      <trkpt lat="43.72201" lon="0.97728">
        <ele>204</ele>
        <time>2016-10-22T06:16:36Z</time>
      </trkpt>
      <trkpt lat="43.72201" lon="0.97726">
        <ele>203</ele>
        <time>2016-10-22T06:16:36Z</time>
      </trkpt>
      <trkpt lat="43.72202" lon="0.97723">
        <ele>203</ele>
        <time>2016-10-22T06:16:36Z</time>
      </trkpt>
      <trkpt lat="43.72204" lon="0.97722">
        <ele>203</ele>
        <time>2016-10-22T06:16:36Z</time>
      </trkpt>
      <trkpt lat="43.72203" lon="0.97724">
        <ele>203</ele>
        <time>2016-10-22T06:16:36Z</time>
      </trkpt>
      <trkpt lat="43.72203" lon="0.97726">
        <ele>203</ele>
        <time>2016-10-22T06:16:36Z</time>
      </trkpt>
      <trkpt lat="43.72205" lon="0.97725">
        <ele>203</ele>
        <time>2016-10-22T06:16:36Z</time>
      </trkpt>
      <trkpt lat="43.72205" lon="0.97722">
        <ele>203</ele>
        <time>2016-10-22T06:16:36Z</time>
      </trkpt>
      <trkpt lat="43.72205" lon="0.9772">
        <ele>203</ele>
        <time>2016-10-22T06:16:36Z</time>
      </trkpt>
      <trkpt lat="43.72205" lon="0.97718">
        <ele>203</ele>
        <time>2016-10-22T06:16:36Z</time>
      </trkpt>
      <trkpt lat="43.72205" lon="0.97719">
        <ele>203</ele>
        <time>2016-10-22T06:16:36Z</time>
      </trkpt>
    </trkseg>
  </trk>
</gpx>